Regional Weather Roundup
Issued by NWS

Home | Current Version | Previous Version | Text Only | Print | Product List | Glossary Off
Versions: 1 2 3 4 5 6 7 8 9 10 11 12 13 14 15 16 17 18 19 20 21 22 23 24 25 26 27 28 29 30 31 32 33 34 35 36 37 38 39 40 41 42 43 44 45 46 47 48 49 50

000
ASUS43 KBIS 272102
RWRND

NORTH DAKOTA REGIONAL WEATHER ROUNDUP
NATIONAL WEATHER SERVICE BISMARCK ND
300 PM CST MON FEB 27 2017

NOTE: "FAIR" INDICATES FEW OR NO CLOUDS BELOW 12,000 FEET WITH NO
SIGNIFICANT WEATHER AND/OR OBSTRUCTIONS TO VISIBILITY.


NDZ001>003-009>011-017-272200-
NORTHWEST NORTH DAKOTA

CITY           SKY/WX    TMP DP  RH WIND       PRES   REMARKS
WILLISTON      CLOUDY    15   7  70 NE10      29.81F WCI   2
MINOT          LGT SNOW  14   8  77 N10       29.83S WCI   1
MINOT AFB      LGT SNOW  12   7  79 NE8       29.83S WCI   1
$$

NDZ018>021-031>035-040>046-272200-
SOUTHWEST NORTH DAKOTA

CITY           SKY/WX    TMP DP  RH WIND       PRES   REMARKS
BISMARCK       CLOUDY    23  17  78 NE16      29.77F WCI  10
DICKINSON      LGT SNOW  16  12  84 NE17      29.70R FOG     WCI   0
GARRISON         N/A     15   9  76 NE8       29.80S WCI   4
HETTINGER ARPT CLOUDY    28  19  69 NE8       29.68S WCI  20
$$

NDZ004>008-012>016-024-026-027-054-272200-
NORTHEAST NORTH DAKOTA

CITY           SKY/WX    TMP DP  RH WIND       PRES   REMARKS
GRAND FORKS    PTSUNNY   28  13  53 N6        29.86F
GRND FRKS AFB  CLOUDY    27  20  76 N15       29.86F WCI  15
DEVILS LAKE    LGT SNOW  16  12  84 N13       29.84F FOG     WCI   2
$$

NDZ022-023-025-028>030-036>039-047>053-272200-
SOUTHEAST NORTH DAKOTA

CITY           SKY/WX    TMP DP  RH WIND       PRES   REMARKS
FARGO          CLOUDY    33  23  66 NE10      29.81F
JAMESTOWN      CLOUDY    28  20  71 NE10      29.77S WCI  19
$$





USA.gov is the U.S. government's official web portal to all federal, state and local government web resources and services.